Blue Canyon, CA

1:16 AM PDT on May 27, 2017 (GMT -0700)
Blue Canyon-Nyack

Weather History for KBLU - June, 2012

Change the Weather History Date:

Saturday, June 2, 2012

  Actual Average Record
Temperature  
Mean Temperature 64 °F -  
Max Temperature 72 °F 66 °F 85 °F (1960)
Min Temperature 57 °F 49 °F 32 °F (1999)
Degree Days  
Heating Degree Days 2    
Growing Degree Days 14 (Base 50)    
Moisture  
Dew Point 48 °F    
Average Humidity 55    
Maximum Humidity 83    
Minimum Humidity 35    
Precipitation  
Precipitation 0.00 in - - ()
Sea Level Pressure  
Sea Level Pressure 29.79 in    
Wind  
Wind Speed 5 mph (SSE)    
Max Wind Speed 13 mph    
Max Gust Speed 20 mph    
Visibility 10 miles    
Events      
Averages and records for this station are not official NWS values.
T = Trace of Precipitation, MM = Missing Value Source: NWS Daily Summary

Daily Weather History Graph

Daily Weather History Graph

Search for Another Location

Airport or City:

Trip Planner

Search our weather history database for the weather conditions in past years. The results will help you decide how hot, cold, wet, or windy it might be!

Date:

Astronomy

Jun. 02, 2012 Rise Set
Actual Time 5:37 AM PDT 8:24 PM PDT
Civil Twilight 5:05 AM PDT 8:56 PM PDT
Nautical Twilight 4:26 AM PDT 9:36 PM PDT
Astronomical Twilight 3:40 AM PDT 10:21 PM PDT
Moon 6:46 PM PDT (6/2) 3:59 AM PDT (6/2)
Length of Visible Light 15h 50m
Length of Day
14h 46m
Waxing Gibbous, 96% of the Moon is Illuminated
Jun 2
Waxing Gibbous
Jun 4
Full
Jun 11
Last Quarter
Jun 19
New
Jun 26
First Quarter

Hourly Weather History & Observations

Time (PDT) Temp. Dew Point Humidity Pressure Visibility Wind Dir Wind Speed Gust Speed Precip Events Conditions
12:52 AM 64.0 °F 48.9 °F 58% 29.73 in 10.0 mi ESE 3.5 mph - N/A   Clear
1:52 AM 64.0 °F 48.9 °F 58% 29.74 in 10.0 mi Calm Calm - N/A   Clear
2:52 AM 63.0 °F 48.0 °F 58% 29.74 in 10.0 mi Calm Calm - N/A   Clear
3:52 AM 62.1 °F 48.0 °F 60% 29.73 in 10.0 mi ESE 3.5 mph - N/A   Clear
4:52 AM 63.0 °F 48.0 °F 58% 29.73 in 10.0 mi ESE 3.5 mph - N/A   Clear
5:52 AM 63.0 °F 48.0 °F 58% 29.74 in 10.0 mi ESE 3.5 mph - N/A   Clear
6:52 AM 63.0 °F 48.0 °F 58% 29.76 in 10.0 mi SE 4.6 mph - N/A   Clear
7:52 AM 66.0 °F 46.0 °F 48% 29.76 in 9.0 mi Variable 5.8 mph - N/A   Clear
8:52 AM 66.9 °F 43.0 °F 42% 29.79 in 10.0 mi South 11.5 mph - N/A   Clear
9:52 AM 69.1 °F 44.1 °F 40% 29.77 in 10.0 mi South 11.5 mph 16.1 mph N/A   Clear
10:52 AM 70.0 °F 41.0 °F 35% 29.79 in 10.0 mi South 10.4 mph 18.4 mph N/A   Clear
11:52 AM 70.0 °F 50.0 °F 49% 29.81 in 10.0 mi SSW 8.1 mph 17.3 mph N/A   Clear
12:52 PM 70.0 °F 45.0 °F 41% 29.81 in 10.0 mi South 9.2 mph 19.6 mph N/A   Clear
1:52 PM 70.0 °F 45.0 °F 41% 29.81 in 10.0 mi SSW 10.4 mph - N/A   Clear
2:52 PM 70.0 °F 48.0 °F 46% 29.80 in 10.0 mi South 12.7 mph 19.6 mph N/A   Clear
3:52 PM 70.0 °F 46.9 °F 44% 29.81 in 10.0 mi SW 9.2 mph 18.4 mph N/A   Clear
4:52 PM 69.1 °F 50.0 °F 51% 29.81 in 10.0 mi South 12.7 mph 18.4 mph N/A   Partly Cloudy
5:52 PM 66.9 °F 48.0 °F 51% 29.82 in 10.0 mi South 10.4 mph - N/A   Clear
6:52 PM 64.9 °F 48.0 °F 54% 29.82 in 10.0 mi South 9.2 mph - N/A   Clear
7:52 PM 63.0 °F 50.0 °F 63% 29.82 in 10.0 mi South 4.6 mph - N/A   Clear
8:52 PM 60.1 °F 52.0 °F 75% 29.83 in 10.0 mi South 4.6 mph - N/A   Clear
9:52 PM 57.9 °F 52.0 °F 81% 29.85 in 10.0 mi SE 3.5 mph - N/A   Clear
10:52 PM 57.0 °F 52.0 °F 83% 29.86 in 10.0 mi ESE 3.5 mph - N/A   Clear
11:52 PM 57.9 °F 48.9 °F 72% 29.85 in 10.0 mi ESE 3.5 mph - N/A   Clear